Tracking 29892 objects as of 21-Nov-2024
HD Live streaming from Space Station
objects crossing your sky now

STARLINK-30328

Track STARLINK-30328 now!
10-day predictions
STARLINK-30328 is classified as:


NORAD ID: 57638
Int'l Code: 2023-122G
Perigee: 566.0 km
Apogee: 566.3 km
Inclination: 43.0 °
Period: 95.8 minutes
Semi major axis: 6937 km
RCS: Unknown
Launch date: August 17, 2023
Source: United States (US)
Launch site: AIR FORCE EASTERN TEST RANGE (AFETR)
Your satellite tracking list
Your tracking list is empty




NASA's NSSDC Master Catalog

Two Line Element Set (TLE):
1 57638U 23122G   24325.87637977  .00001909  00000-0  15627-3 0  9992
2 57638  42.9968 135.9333 0000247 202.4045 157.6787 15.02549386 71053
Source of the keplerian elements: AFSPC